Tracking 23762 objects as of 22-Oct-2021
HD Live streaming from Space Station
objects crossing your sky now

DELTA 1 DEB

Track DELTA 1 DEB now!
10-day predictions


NORAD ID: 10252
Int'l Code: 1977-065CD
Perigee: 595.3 km
Apogee: 1,779.1 km
Inclination: 28.8 °
Period: 109.0 minutes
Semi major axis: 7558 km
RCS: 0.0465 m2 (small)
Launch date: July 14, 1977
Source: United States (US)
Launch site: AIR FORCE EASTERN TEST RANGE (AFETR)

Note: This is SATELLITE DEBRIS
aabbcc
Your satellite tracking list
Your tracking list is empty




NASA's NSSDC Master Catalog

Two Line Element Set (TLE):
1 10252U 77065CD  21294.53474669  .00000027  00000-0 -35426-4 0  9991
2 10252  28.8455 230.2187 0783142 233.3749 119.2267 13.21222698114519
Source of the keplerian elements: AFSPC